Time,TemperatureF,DewpointF,PressureIn,WindDirection,WindDirectionDegrees,WindSpeedMPH,WindSpeedGustMPH,Humidity,HourlyPrecipIn,Conditions,Clouds,dailyrainin,SoftwareType,DateUTC
2013-01-16 00:04:00,50.5,22.4,30.40,North,6,0.0,1.0,33,0.00,,,0.00,Wunderground v.1.15,2013-01-16 08:04:00,
2013-01-16 00:10:00,51.3,22.4,30.40,NNE,25,1.0,1.0,32,0.00,,,0.00,Wunderground v.1.15,2013-01-16 08:10:00,
2013-01-16 00:16:00,52.4,22.6,30.40,NW,312,2.0,2.0,31,0.00,,,0.00,Wunderground v.1.15,2013-01-16 08:16:00,
2013-01-16 00:22:00,52.9,22.3,30.40,NNW,329,2.0,3.0,30,0.00,,,0.00,Wunderground v.1.15,2013-01-16 08:22:00,
2013-01-16 00:28:00,53.6,22.9,30.40,WNW,290,2.0,3.0,30,0.00,,,0.00,Wunderground v.1.15,2013-01-16 08:28:00,
2013-01-16 00:34:00,53.7,23.0,30.39,ESE,111,1.0,2.0,30,0.00,,,0.00,Wunderground v.1.15,2013-01-16 08:34:00,
2013-01-16 00:40:00,53.5,22.8,30.39,SSE,158,1.0,2.0,30,0.00,,,0.00,Wunderground v.1.15,2013-01-16 08:40:00,
2013-01-16 00:46:00,53.4,22.7,30.39,East,100,1.0,2.0,30,0.00,,,0.00,Wunderground v.1.15,2013-01-16 08:46:00,
2013-01-16 00:52:00,53.4,22.7,30.39,WSW,243,1.0,2.0,30,0.00,,,0.00,Wunderground v.1.15,2013-01-16 08:52:00,
2013-01-16 00:58:00,53.2,22.5,30.39,North,11,1.0,2.0,30,0.00,,,0.00,Wunderground v.1.15,2013-01-16 08:58:00,
2013-01-16 01:04:00,52.9,23.0,30.39,North,354,1.0,1.0,31,0.00,,,0.00,Wunderground v.1.15,2013-01-16 09:04:00,
2013-01-16 01:10:00,52.7,22.9,30.39,East,99,1.0,1.0,31,0.00,,,0.00,Wunderground v.1.15,2013-01-16 09:10:00,
2013-01-16 01:16:00,52.8,23.0,30.39,ESE,104,1.0,1.0,31,0.00,,,0.00,Wunderground v.1.15,2013-01-16 09:16:00,
2013-01-16 01:22:00,52.8,23.0,30.38,East,101,1.0,1.0,31,0.00,,,0.00,Wunderground v.1.15,2013-01-16 09:22:00,
2013-01-16 01:28:00,52.9,23.0,30.38,ENE,77,1.0,3.0,31,0.00,,,0.00,Wunderground v.1.15,2013-01-16 09:28:00,
2013-01-16 01:34:00,52.9,23.0,30.38,East,96,1.0,10.0,31,0.00,,,0.00,Wunderground v.1.15,2013-01-16 09:34:00,
2013-01-16 01:40:00,53.2,23.3,30.38,SE,129,1.0,10.0,31,0.00,,,0.00,Wunderground v.1.15,2013-01-16 09:40:00,
2013-01-16 01:46:00,52.9,23.0,30.39,ESE,121,1.0,10.0,31,0.00,,,0.00,Wunderground v.1.15,2013-01-16 09:46:00,
2013-01-16 01:52:00,52.6,22.8,30.39,SE,134,1.0,10.0,31,0.00,,,0.00,Wunderground v.1.15,2013-01-16 09:52:00,
2013-01-16 01:58:00,52.3,23.3,30.38,East,85,0.0,10.0,32,0.00,,,0.00,Wunderground v.1.15,2013-01-16 09:58:00,
2013-01-16 02:04:00,52.0,23.0,30.38,ENE,73,1.0,1.0,32,0.00,,,0.00,Wunderground v.1.15,2013-01-16 10:04:00,
2013-01-16 02:10:00,51.8,23.6,30.38,SE,129,0.0,0.0,33,0.00,,,0.00,Wunderground v.1.15,2013-01-16 10:10:00,
2013-01-16 02:16:00,51.2,23.8,30.38,ESE,121,0.0,1.0,34,0.00,,,0.00,Wunderground v.1.15,2013-01-16 10:16:00,
2013-01-16 02:22:00,51.6,24.1,30.38,NE,42,1.0,3.0,34,0.00,,,0.00,Wunderground v.1.15,2013-01-16 10:22:00,
2013-01-16 02:28:00,53.0,23.9,30.38,NNE,15,2.0,3.0,32,0.00,,,0.00,Wunderground v.1.15,2013-01-16 10:28:00,
2013-01-16 02:34:00,53.7,23.7,30.38,South,170,2.0,6.0,31,0.00,,,0.00,Wunderground v.1.15,2013-01-16 10:34:00,
2013-01-16 02:40:00,53.6,24.4,30.39,NNW,346,1.0,1.0,32,0.00,,,0.00,Wunderground v.1.15,2013-01-16 10:40:00,
2013-01-16 02:46:00,53.6,24.4,30.38,North,356,2.0,6.0,32,0.00,,,0.00,Wunderground v.1.15,2013-01-16 10:46:00,
2013-01-16 02:52:00,54.0,24.0,30.38,North,1,3.0,3.0,31,0.00,,,0.00,Wunderground v.1.15,2013-01-16 10:52:00,
2013-01-16 02:58:00,54.3,24.3,30.38,NNE,15,3.0,6.0,31,0.00,,,0.00,Wunderground v.1.15,2013-01-16 10:58:00,
2013-01-16 03:04:00,54.4,24.4,30.38,NE,46,3.0,5.0,31,0.00,,,0.00,Wunderground v.1.15,2013-01-16 11:04:00,
2013-01-16 03:10:00,54.4,24.4,30.37,East,98,2.0,2.0,31,0.00,,,0.00,Wunderground v.1.15,2013-01-16 11:10:00,
2013-01-16 03:16:00,54.3,24.3,30.37,NNE,18,2.0,2.0,31,0.00,,,0.00,Wunderground v.1.15,2013-01-16 11:16:00,
2013-01-16 03:22:00,54.1,24.1,30.37,North,353,1.0,3.0,31,0.00,,,0.00,Wunderground v.1.15,2013-01-16 11:22:00,
2013-01-16 03:28:00,53.6,24.4,30.38,East,88,1.0,3.0,32,0.00,,,0.00,Wunderground v.1.15,2013-01-16 11:28:00,
2013-01-16 03:34:00,53.3,24.2,30.38,NNW,336,1.0,10.0,32,0.00,,,0.00,Wunderground v.1.15,2013-01-16 11:34:00,
2013-01-16 03:40:00,52.9,23.8,30.37,NNW,346,1.0,10.0,32,0.00,,,0.00,Wunderground v.1.15,2013-01-16 11:40:00,
2013-01-16 03:46:00,52.8,24.5,30.37,North,8,1.0,10.0,33,0.00,,,0.00,Wunderground v.1.15,2013-01-16 11:46:00,
2013-01-16 03:52:00,52.6,24.3,30.37,NE,54,1.0,10.0,33,0.00,,,0.00,Wunderground v.1.15,2013-01-16 11:52:00,
2013-01-16 03:58:00,52.6,24.3,30.37,East,94,1.0,10.0,33,0.00,,,0.00,Wunderground v.1.15,2013-01-16 11:58:00,
2013-01-16 04:04:00,52.7,24.4,30.37,NW,304,1.0,3.0,33,0.00,,,0.00,Wunderground v.1.15,2013-01-16 12:04:00,
2013-01-16 04:10:00,53.0,24.6,30.36,NE,51,1.0,1.0,33,0.00,,,0.00,Wunderground v.1.15,2013-01-16 12:10:00,
2013-01-16 04:16:00,53.0,24.6,30.37,ESE,115,1.0,1.0,33,0.00,,,0.00,Wunderground v.1.15,2013-01-16 12:16:00,
2013-01-16 04:22:00,52.9,24.5,30.36,NNW,346,1.0,3.0,33,0.00,,,0.00,Wunderground v.1.15,2013-01-16 12:22:00,
2013-01-16 04:28:00,52.9,24.5,30.36,ESE,110,1.0,3.0,33,0.00,,,0.00,Wunderground v.1.15,2013-01-16 12:28:00,
2013-01-16 04:34:00,52.5,24.2,30.36,ESE,107,0.0,9.0,33,0.00,,,0.00,Wunderground v.1.15,2013-01-16 12:34:00,
2013-01-16 04:40:00,52.2,24.6,30.35,South,181,0.0,9.0,34,0.00,,,0.00,Wunderground v.1.15,2013-01-16 12:40:00,
2013-01-16 04:46:00,52.2,24.6,30.35,SW,217,0.0,9.0,34,0.00,,,0.00,Wunderground v.1.15,2013-01-16 12:46:00,
2013-01-16 04:52:00,52.0,25.2,30.35,SSE,147,0.0,9.0,35,0.00,,,0.00,Wunderground v.1.15,2013-01-16 12:52:00,
2013-01-16 04:58:00,51.5,24.7,30.36,NNE,29,0.0,9.0,35,0.00,,,0.00,Wunderground v.1.15,2013-01-16 12:58:00,
2013-01-16 05:04:00,51.2,25.1,30.35,ESE,117,0.0,0.0,36,0.00,,,0.00,Wunderground v.1.15,2013-01-16 13:04:00,
2013-01-16 05:10:00,51.5,25.4,30.35,South,172,0.0,0.0,36,0.00,,,0.00,Wunderground v.1.15,2013-01-16 13:10:00,
2013-01-16 05:16:00,52.0,25.2,30.35,NE,42,0.0,2.0,35,0.00,,,0.00,Wunderground v.1.15,2013-01-16 13:16:00,
2013-01-16 05:22:00,52.7,25.1,30.35,NE,51,1.0,3.0,34,0.00,,,0.00,Wunderground v.1.15,2013-01-16 13:22:00,
2013-01-16 05:28:00,53.0,25.3,30.34,NNW,329,1.0,3.0,34,0.00,,,0.00,Wunderground v.1.15,2013-01-16 13:28:00,
2013-01-16 05:34:00,53.2,25.5,30.34,NW,317,2.0,5.0,34,0.00,,,0.00,Wunderground v.1.15,2013-01-16 13:34:00,
2013-01-16 05:40:00,53.2,25.5,30.34,NE,41,2.0,5.0,34,0.00,,,0.00,Wunderground v.1.15,2013-01-16 13:40:00,
2013-01-16 05:46:00,53.5,25.1,30.34,North,359,2.0,5.0,33,0.00,,,0.00,Wunderground v.1.15,2013-01-16 13:46:00,
2013-01-16 05:52:00,53.4,25.0,30.34,NNE,22,2.0,5.0,33,0.00,,,0.00,Wunderground v.1.15,2013-01-16 13:52:00,
2013-01-16 05:58:00,53.2,25.5,30.34,North,360,1.0,5.0,34,0.00,,,0.00,Wunderground v.1.15,2013-01-16 13:58:00,
2013-01-16 06:04:00,52.9,25.3,30.35,East,90,1.0,2.0,34,0.00,,,0.00,Wunderground v.1.15,2013-01-16 14:04:00,
2013-01-16 06:10:00,52.8,25.2,30.35,SE,131,1.0,2.0,34,0.00,,,0.00,Wunderground v.1.15,2013-01-16 14:10:00,
2013-01-16 06:16:00,52.6,25.0,30.35,SE,136,0.0,2.0,34,0.00,,,0.00,Wunderground v.1.15,2013-01-16 14:16:00,
2013-01-16 06:22:00,52.3,24.7,30.35,SE,134,0.0,0.0,34,0.00,,,0.00,Wunderground v.1.15,2013-01-16 14:22:00,
2013-01-16 06:28:00,52.0,24.5,30.35,ESE,120,0.0,0.0,34,0.00,,,0.00,Wunderground v.1.15,2013-01-16 14:28:00,
2013-01-16 06:34:00,51.6,24.8,30.35,SW,228,0.0,9.0,35,0.00,,,0.00,Wunderground v.1.15,2013-01-16 14:34:00,
2013-01-16 06:40:00,51.0,25.0,30.35,SW,227,0.0,9.0,36,0.00,,,0.00,Wunderground v.1.15,2013-01-16 14:40:00,
2013-01-16 06:46:00,50.5,25.2,30.35,ESE,108,0.0,9.0,37,0.00,,,0.00,Wunderground v.1.15,2013-01-16 14:46:00,
2013-01-16 06:52:00,50.7,25.3,30.35,SE,129,0.0,9.0,37,0.00,,,0.00,Wunderground v.1.15,2013-01-16 14:52:00,
2013-01-16 06:58:00,50.8,24.8,30.35,SE,129,0.0,9.0,36,0.00,,,0.00,Wunderground v.1.15,2013-01-16 14:58:00,
2013-01-16 07:04:00,50.5,25.2,30.35,North,354,0.0,0.0,37,0.00,,,0.00,Wunderground v.1.15,2013-01-16 15:04:00,
2013-01-16 07:10:00,51.4,25.3,30.35,North,5,1.0,2.0,36,0.00,,,0.00,Wunderground v.1.15,2013-01-16 15:10:00,
2013-01-16 07:16:00,52.2,25.3,30.35,NNW,338,2.0,5.0,35,0.00,,,0.00,Wunderground v.1.15,2013-01-16 15:16:00,
2013-01-16 07:22:00,53.0,25.3,30.35,North,8,4.0,5.0,34,0.00,,,0.00,Wunderground v.1.15,2013-01-16 15:22:00,
2013-01-16 07:28:00,53.2,25.5,30.36,NNW,346,4.0,5.0,34,0.00,,,0.00,Wunderground v.1.15,2013-01-16 15:28:00,
2013-01-16 07:34:00,53.8,25.3,30.36,NNW,336,4.0,9.0,33,0.00,,,0.00,Wunderground v.1.15,2013-01-16 15:34:00,
2013-01-16 07:40:00,54.3,25.0,30.37,North,8,4.0,4.0,32,0.00,,,0.00,Wunderground v.1.15,2013-01-16 15:40:00,
2013-01-16 07:46:00,54.7,26.1,30.36,NNE,20,3.0,5.0,33,0.00,,,0.00,Wunderground v.1.15,2013-01-16 15:46:00,
2013-01-16 07:52:00,55.2,25.8,30.36,North,353,4.0,4.0,32,0.00,,,0.00,Wunderground v.1.15,2013-01-16 15:52:00,
2013-01-16 07:58:00,55.3,25.9,30.36,North,8,4.0,13.0,32,0.00,,,0.00,Wunderground v.1.15,2013-01-16 15:58:00,
2013-01-16 08:04:00,55.9,26.4,30.36,North,3,6.0,8.0,32,0.00,,,0.00,Wunderground v.1.15,2013-01-16 16:04:00,
2013-01-16 08:10:00,56.2,25.9,30.35,North,360,6.0,7.0,31,0.00,,,0.00,Wunderground v.1.15,2013-01-16 16:10:00,
2013-01-16 08:16:00,56.5,26.2,30.36,North,1,5.0,7.0,31,0.00,,,0.00,Wunderground v.1.15,2013-01-16 16:16:00,
2013-01-16 08:22:00,56.5,26.2,30.36,ESE,117,4.0,9.0,31,0.00,,,0.00,Wunderground v.1.15,2013-01-16 16:22:00,
2013-01-16 08:28:00,56.7,26.4,30.36,North,6,4.0,9.0,31,0.00,,,0.00,Wunderground v.1.15,2013-01-16 16:28:00,
2013-01-16 08:34:00,56.8,26.5,30.36,NW,321,4.0,11.0,31,0.00,,,0.00,Wunderground v.1.15,2013-01-16 16:34:00,
2013-01-16 08:40:00,57.1,25.9,30.37,North,358,4.0,11.0,30,0.00,,,0.00,Wunderground v.1.15,2013-01-16 16:40:00,
2013-01-16 08:46:00,57.3,26.1,30.37,NE,56,4.0,11.0,30,0.00,,,0.00,Wunderground v.1.15,2013-01-16 16:46:00,
2013-01-16 08:52:00,57.6,26.4,30.37,NNW,342,4.0,11.0,30,0.00,,,0.00,Wunderground v.1.15,2013-01-16 16:52:00,
2013-01-16 08:58:00,57.7,26.4,30.37,NW,316,3.0,11.0,30,0.00,,,0.00,Wunderground v.1.15,2013-01-16 16:58:00,
2013-01-16 09:04:00,57.7,27.2,30.37,WNW,295,3.0,3.0,31,0.00,,,0.00,Wunderground v.1.15,2013-01-16 17:04:00,
2013-01-16 09:10:00,58.1,26.8,30.36,NNW,333,3.0,3.0,30,0.00,,,0.00,Wunderground v.1.15,2013-01-16 17:10:00,
2013-01-16 09:16:00,58.6,27.2,30.36,North,5,4.0,7.0,30,0.00,,,0.00,Wunderground v.1.15,2013-01-16 17:16:00,
2013-01-16 09:22:00,59.3,27.0,30.36,North,11,4.0,5.0,29,0.00,,,0.00,Wunderground v.1.15,2013-01-16 17:22:00,
2013-01-16 09:28:00,60.1,27.7,30.36,NNW,346,4.0,5.0,29,0.00,,,0.00,Wunderground v.1.15,2013-01-16 17:28:00,
2013-01-16 09:34:00,60.8,28.3,30.36,NNW,329,4.0,14.0,29,0.00,,,0.00,Wunderground v.1.15,2013-01-16 17:34:00,
2013-01-16 09:40:00,61.4,27.1,30.35,NE,41,4.0,4.0,27,0.00,,,0.00,Wunderground v.1.15,2013-01-16 17:40:00,
2013-01-16 09:46:00,61.7,28.2,30.35,NW,311,4.0,14.0,28,0.00,,,0.00,Wunderground v.1.15,2013-01-16 17:46:00,
2013-01-16 09:52:00,62.2,27.8,30.35,North,356,4.0,6.0,27,0.00,,,0.00,Wunderground v.1.15,2013-01-16 17:52:00,
2013-01-16 09:58:00,62.6,27.2,30.35,NNW,344,4.0,14.0,26,0.00,,,0.00,Wunderground v.1.15,2013-01-16 17:58:00,
2013-01-16 10:04:00,63.0,27.5,30.35,North,352,5.0,8.0,26,0.00,,,0.00,Wunderground v.1.15,2013-01-16 18:04:00,
2013-01-16 10:10:00,63.3,28.7,30.35,NNW,339,5.0,5.0,27,0.00,,,0.00,Wunderground v.1.15,2013-01-16 18:10:00,
2013-01-16 10:16:00,63.7,28.1,30.34,North,11,5.0,7.0,26,0.00,,,0.00,Wunderground v.1.15,2013-01-16 18:16:00,
2013-01-16 10:22:00,63.9,28.3,30.34,NNW,335,5.0,5.0,26,0.00,,,0.00,Wunderground v.1.15,2013-01-16 18:22:00,
2013-01-16 10:28:00,64.1,27.5,30.34,NNW,332,5.0,5.0,25,0.00,,,0.00,Wunderground v.1.15,2013-01-16 18:28:00,
2013-01-16 10:34:00,64.3,27.7,30.33,North,1,5.0,13.0,25,0.00,,,0.00,Wunderground v.1.15,2013-01-16 18:34:00,
2013-01-16 10:40:00,64.5,27.9,30.33,North,5,6.0,6.0,25,0.00,,,0.00,Wunderground v.1.15,2013-01-16 18:40:00,
2013-01-16 10:46:00,64.4,27.8,30.33,NNW,338,7.0,13.0,25,0.00,,,0.00,Wunderground v.1.15,2013-01-16 18:46:00,
2013-01-16 10:52:00,64.5,26.9,30.33,NNE,19,6.0,13.0,24,0.00,,,0.00,Wunderground v.1.15,2013-01-16 18:52:00,
2013-01-16 10:58:00,64.6,27.0,30.32,North,8,5.0,13.0,24,0.00,,,0.00,Wunderground v.1.15,2013-01-16 18:58:00,
2013-01-16 11:04:00,64.7,27.0,30.32,NE,39,5.0,6.0,24,0.00,,,0.00,Wunderground v.1.15,2013-01-16 19:04:00,
2013-01-16 11:10:00,65.0,27.3,30.32,North,352,5.0,5.0,24,0.00,,,0.00,Wunderground v.1.15,2013-01-16 19:10:00,
2013-01-16 11:16:00,65.1,26.3,30.31,NNW,337,4.0,8.0,23,0.00,,,0.00,Wunderground v.1.15,2013-01-16 19:16:00,
2013-01-16 11:22:00,65.3,27.5,30.31,NNE,23,5.0,5.0,24,0.00,,,0.00,Wunderground v.1.15,2013-01-16 19:22:00,
2013-01-16 11:28:00,65.5,27.7,30.31,North,351,4.0,5.0,24,0.00,,,0.00,Wunderground v.1.15,2013-01-16 19:28:00,
2013-01-16 11:34:00,65.8,28.0,30.30,NNE,15,4.0,11.0,24,0.00,,,0.00,Wunderground v.1.15,2013-01-16 19:34:00,
2013-01-16 11:40:00,66.1,28.2,30.30,North,8,4.0,4.0,24,0.00,,,0.00,Wunderground v.1.15,2013-01-16 19:40:00,
2013-01-16 11:46:00,66.3,26.3,30.29,NNE,18,4.0,18.0,22,0.00,,,0.00,Wunderground v.1.15,2013-01-16 19:46:00,
2013-01-16 11:52:00,66.5,27.5,30.28,NE,51,5.0,18.0,23,0.00,,,0.00,Wunderground v.1.15,2013-01-16 19:52:00,
2013-01-16 11:58:00,66.7,27.7,30.28,NE,47,4.0,18.0,23,0.00,,,0.00,Wunderground v.1.15,2013-01-16 19:58:00,
2013-01-16 12:04:00,66.7,26.6,30.28,North,354,5.0,5.0,22,0.00,,,0.00,Wunderground v.1.15,2013-01-16 20:04:00,
2013-01-16 12:10:00,66.5,27.5,30.28,NNE,12,5.0,5.0,23,0.00,,,0.00,Wunderground v.1.15,2013-01-16 20:10:00,
2013-01-16 12:16:00,66.8,26.7,30.27,NE,45,4.0,5.0,22,0.00,,,0.00,Wunderground v.1.15,2013-01-16 20:16:00,
2013-01-16 12:22:00,66.7,27.7,30.26,ENE,72,3.0,8.0,23,0.00,,,0.00,Wunderground v.1.15,2013-01-16 20:22:00,
2013-01-16 12:28:00,66.9,26.8,30.26,NNW,341,3.0,8.0,22,0.00,,,0.00,Wunderground v.1.15,2013-01-16 20:28:00,
2013-01-16 12:34:00,67.0,26.9,30.26,North,357,3.0,15.0,22,0.00,,,0.00,Wunderground v.1.15,2013-01-16 20:34:00,
2013-01-16 12:40:00,67.3,27.1,30.25,NNE,19,3.0,15.0,22,0.00,,,0.00,Wunderground v.1.15,2013-01-16 20:40:00,
2013-01-16 12:46:00,67.6,27.4,30.25,NNE,15,3.0,15.0,22,0.00,,,0.00,Wunderground v.1.15,2013-01-16 20:46:00,
2013-01-16 12:52:00,67.8,27.5,30.25,NNE,12,4.0,4.0,22,0.00,,,0.00,Wunderground v.1.15,2013-01-16 20:52:00,
2013-01-16 12:58:00,67.9,26.5,30.25,ENE,59,3.0,15.0,21,0.00,,,0.00,Wunderground v.1.15,2013-01-16 20:58:00,
2013-01-16 13:04:00,68.1,26.7,30.24,North,9,4.0,7.0,21,0.00,,,0.00,Wunderground v.1.15,2013-01-16 21:04:00,
2013-01-16 13:10:00,68.1,25.5,30.23,NE,46,5.0,5.0,20,0.00,,,0.00,Wunderground v.1.15,2013-01-16 21:10:00,
2013-01-16 13:16:00,68.4,25.7,30.23,ENE,78,5.0,11.0,20,0.00,,,0.00,Wunderground v.1.15,2013-01-16 21:16:00,
2013-01-16 13:22:00,68.5,25.8,30.23,NNW,347,5.0,8.0,20,0.00,,,0.00,Wunderground v.1.15,2013-01-16 21:22:00,
2013-01-16 13:28:00,68.6,25.9,30.23,NE,36,6.0,12.0,20,0.00,,,0.00,Wunderground v.1.15,2013-01-16 21:28:00,
2013-01-16 13:34:00,68.8,26.1,30.23,North,360,6.0,21.0,20,0.00,,,0.00,Wunderground v.1.15,2013-01-16 21:34:00,
2013-01-16 13:40:00,68.8,26.1,30.23,North,8,5.0,5.0,20,0.00,,,0.00,Wunderground v.1.15,2013-01-16 21:40:00,
2013-01-16 13:46:00,69.3,27.7,30.22,NNW,341,4.0,21.0,21,0.00,,,0.00,Wunderground v.1.15,2013-01-16 21:46:00,
2013-01-16 13:52:00,69.1,26.3,30.22,NNE,29,4.0,21.0,20,0.00,,,0.00,Wunderground v.1.15,2013-01-16 21:52:00,
2013-01-16 13:58:00,69.1,27.5,30.22,NNE,19,5.0,21.0,21,0.00,,,0.00,Wunderground v.1.15,2013-01-16 21:58:00,
2013-01-16 14:04:00,69.2,27.6,30.22,NNW,332,4.0,7.0,21,0.00,,,0.00,Wunderground v.1.15,2013-01-16 22:04:00,
2013-01-16 14:10:00,69.3,26.5,30.22,North,8,5.0,11.0,20,0.00,,,0.00,Wunderground v.1.15,2013-01-16 22:10:00,
2013-01-16 14:16:00,69.2,27.6,30.21,North,352,5.0,11.0,21,0.00,,,0.00,Wunderground v.1.15,2013-01-16 22:16:00,
2013-01-16 14:22:00,69.5,26.6,30.21,North,8,4.0,9.0,20,0.00,,,0.00,Wunderground v.1.15,2013-01-16 22:22:00,
2013-01-16 14:28:00,69.5,26.6,30.21,North,356,4.0,9.0,20,0.00,,,0.00,Wunderground v.1.15,2013-01-16 22:28:00,
2013-01-16 14:34:00,69.7,26.8,30.21,NNE,23,4.0,18.0,20,0.00,,,0.00,Wunderground v.1.15,2013-01-16 22:34:00,
2013-01-16 14:40:00,69.9,27.0,30.21,North,358,3.0,18.0,20,0.00,,,0.00,Wunderground v.1.15,2013-01-16 22:40:00,
2013-01-16 14:46:00,69.8,25.6,30.21,NW,307,4.0,18.0,19,0.00,,,0.00,Wunderground v.1.15,2013-01-16 22:46:00,
2013-01-16 14:52:00,69.5,25.4,30.21,NNE,29,5.0,18.0,19,0.00,,,0.00,Wunderground v.1.15,2013-01-16 22:52:00,
2013-01-16 14:58:00,69.5,25.4,30.21,NNW,345,4.0,18.0,19,0.00,,,0.00,Wunderground v.1.15,2013-01-16 22:58:00,
2013-01-16 15:04:00,69.6,25.5,30.21,NNE,15,4.0,9.0,19,0.00,,,0.00,Wunderground v.1.15,2013-01-16 23:04:00,
2013-01-16 15:10:00,69.5,25.4,30.20,NNE,22,4.0,5.0,19,0.00,,,0.00,Wunderground v.1.15,2013-01-16 23:10:00,
2013-01-16 15:16:00,69.6,24.2,30.20,North,5,5.0,7.0,18,0.00,,,0.00,Wunderground v.1.15,2013-01-16 23:16:00,
2013-01-16 15:22:00,69.4,24.0,30.20,NNW,337,5.0,6.0,18,0.00,,,0.00,Wunderground v.1.15,2013-01-16 23:22:00,
2013-01-16 15:28:00,69.4,25.3,30.21,North,353,5.0,7.0,19,0.00,,,0.00,Wunderground v.1.15,2013-01-16 23:28:00,
2013-01-16 15:34:00,69.3,25.2,30.21,North,360,5.0,17.0,19,0.00,,,0.00,Wunderground v.1.15,2013-01-16 23:34:00,